Lapse_Rate
3.6 3.6 3.8 4.0 4.3 4.5 4.5 4.5 4.4 4.4 4.5 4.5 4.4 4.2 4.2 4.1 5.6 6.5 8.1 8.5 7.3 6.7 7.0 7.0 6.7 6.5 6.7 6.7 6.6 6.4 6.3 6.3 6.1
3.3 3.2 3.3 3.6 3.8 3.9 4.1 4.2 4.1 4.1 4.2 4.2 4.1 3.9 3.5 4.1 5.2 6.7 5.0 6.3 7.2 6.9 7.0 7.2 7.1 6.7 6.7 6.7 6.6 6.6 6.4 6.5 6.7
3.0 2.8 3.1 3.3 3.5 3.7 3.8 3.9 3.9 3.8 3.9 4.1 3.9 3.8 3.6 4.4 5.0 7.7 5.4 6.5 7.6 7.7 7.9 7.2 6.6 6.8 6.8 6.6 6.6 6.7 6.4 6.5 6.2
3.3 3.5 3.1 3.2 3.4 3.5 3.5 3.6 3.7 3.8 3.9 3.9 3.7 3.6 3.7 3.9 4.8 7.7 5.4 6.4 7.0 7.5 7.6 7.5 7.0 6.8 6.6 6.5 6.7 6.5 6.4 6.4 6.2
3.4 3.2 2.9 3.3 3.3 3.6 3.7 3.9 4.0 4.1 4.2 4.1 4.0 3.9 4.2 5.1 6.0 5.4 5.4 6.3 6.5 6.7 7.0 7.1 7.0 7.1 6.9 6.6 6.5 6.2 6.4 6.3 6.4
4.7 3.7 3.0 3.5 3.8 4.2 4.6 4.9 5.1 4.9 4.3 4.2 4.6 5.6 5.3 7.2 7.4 4.9 5.4 5.8 6.1 6.6 6.9 6.9 6.9 7.0 6.5 6.4 6.5 6.5 6.3 6.3 6.3
5.7 5.3 4.4 3.9 4.6 4.5 5.1 5.9 5.7 6.5 6.5 5.5 5.7 6.0 7.0 7.1 7.1 5.0 5.9 6.3 6.4 6.8 7.1 6.7 6.2 6.1 6.1 6.2 6.5 6.5 6.4 6.4 6.3
5.5 5.8 6.2 6.2 6.6 5.8 5.8 6.3 6.2 6.1 6.4 6.1 6.5 6.9 7.3 7.3 5.3 4.7 5.3 5.9 6.5 7.0 6.3 5.5 5.5 5.9 6.0 6.1 6.5 6.0 5.7 5.5 5.5
3.9 4.4 5.2 5.1 5.8 4.6 4.6 4.2 5.1 5.5 6.0 6.0 5.8 6.4 7.0 7.6 4.8 4.2 4.7 4.9 5.2 5.9 6.0 5.7 5.8 6.5 6.3 6.4 6.6 5.7 5.7 5.6 5.4
4.0 4.2 4.9 4.4 4.8 4.2 3.3 3.3 3.5 3.6 4.4 5.5 5.4 5.6 6.5 7.1 6.1 4.1 3.9 4.1 4.7 5.5 5.7 6.0 6.0 6.9 7.7 7.8 7.6 7.8 6.8 5.8 5.5
3.6 3.8 3.7 3.8 4.3 4.4 3.8 2.9 2.4 2.4 3.7 3.5 5.3 5.9 7.3 8.0 7.5 4.5 4.1 4.1 4.2 4.7 5.2 5.5 5.7 6.3 7.3 7.6 7.8 7.4 5.8 5.7 5.9
4.1 3.5 2.7 3.7 4.4 4.6 4.1 3.7 3.8 2.1 3.5 3.2 4.0 5.9 6.5 7.1 7.9 7.4 4.7 4.4 3.7 4.3 4.4 4.7 5.0 5.1 5.9 6.2 6.2 5.9 5.6 5.8 6.5
4.0 3.3 2.8 4.3 4.2 3.9 2.8 2.2 2.3 2.1 2.4 2.6 2.7 3.9 5.5 7.1 7.2 7.4 7.0 5.5 3.8 3.8 3.9 3.7 3.9 4.3 5.0 5.4 5.7 5.8 5.5 5.5 6.1
4.5 3.8 3.8 4.5 3.4 2.8 2.9 2.8 2.7 2.3 2.2 3.1 3.0 3.8 4.4 5.4 7.3 6.9 6.4 5.4 5.6 4.4 3.5 3.4 3.0 3.5 3.9 4.3 4.6 5.0 5.2 5.4 6.0
4.7 4.1 4.2 4.5 2.5 2.3 2.5 2.8 2.5 3.0 2.6 4.4 3.9 2.7 4.1 4.2 4.4 5.5 6.5 5.7 5.5 5.2 4.7 3.8 2.5 3.2 3.5 3.5 3.6 4.2 4.6 5.1 5.6
4.6 3.8 3.8 4.1 3.2 3.1 3.4 2.9 2.8 2.5 2.3 2.0 2.0 2.7 3.8 4.6 4.3 4.3 4.7 5.6 5.6 5.2 4.9 4.3 3.8 3.7 4.0 4.0 3.2 3.6 4.1 4.7 5.3
4.8 3.8 3.2 3.7 3.2 3.2 3.3 3.2 2.4 2.7 2.9 3.2 2.4 3.6 4.0 4.5 4.9 4.6 5.1 4.9 5.0 4.6 4.9 4.3 4.1 3.7 3.2 3.0 3.2 3.2 3.3 4.2 5.1
5.3 4.7 4.0 3.5 3.3 2.8 3.2 3.2 3.5 2.7 2.8 4.3 4.2 3.6 4.0 2.6 3.7 5.0 4.8 4.7 3.9 3.7 4.7 5.0 4.5 3.8 3.3 3.2 3.0 3.2 2.8 3.7 4.8
5.5 4.9 4.4 3.6 3.5 3.4 3.1 4.5 3.3 3.2 2.4 3.0 5.1 4.4 4.6 4.6 3.7 3.9 4.4 4.4 5.4 4.5 3.6 4.2 4.5 4.2 3.2 3.3 2.7 2.6 2.8 3.7 4.7
5.6 5.3 4.5 3.4 3.2 3.1 3.3 3.4 3.2 2.7 2.7 3.1 3.7 4.0 3.6 3.9 4.4 4.3 3.8 3.9 4.1 3.6 3.7 3.6 3.5 4.5 3.7 2.9 3.0 3.5 3.3 3.9 4.6
Wind_Speed
13 13 13 13 13 12 11 11 11 11 11 10 10 11 11 13 15 15 5 2 5 4 4 6 8 8 7 5 6 7 7 5 4
12 12 12 12 12 11 10 10 10 10 9 10 10 11 13 14 15 16 14 13 9 8 6 9 10 10 8 8 8 10 9 9 6
11 12 11 11 11 11 11 10 10 10 10 10 10 12 13 13 14 10 13 14 10 9 8 9 8 8 8 8 7 8 9 10 9
10 10 11 11 11 10 10 11 11 10 10 9 10 11 12 13 12 8 11 11 11 9 8 9 10 11 10 8 7 6 7 7 9
9 9 9 10 9 10 10 11 11 11 9 7 9 11 13 12 10 11 11 10 9 8 7 7 8 9 8 10 10 8 6 6 7
4 4 3 4 5 5 6 8 9 13 14 9 10 10 10 11 6 10 11 10 9 8 7 7 7 6 7 9 9 9 10 10 11
5 2 3 4 8 5 9 9 8 11 13 8 10 7 9 9 5 12 12 10 6 5 5 6 7 8 8 8 8 7 7 7 8
9 9 10 10 11 11 13 14 11 11 9 10 11 11 7 8 11 11 11 9 9 8 7 8 8 7 7 6 6 8 8 8 8
10 8 10 10 13 11 12 11 15 14 11 11 9 10 8 7 11 11 11 9 8 6 7 7 7 7 8 7 6 7 8 8 8
8 7 8 9 11 11 10 9 10 10 11 12 9 8 7 8 9 11 12 8 6 7 9 8 7 7 8 9 10 9 9 9 9
4 5 6 7 9 10 9 6 5 5 7 6 9 7 9 3 6 9 9 8 6 6 6 6 8 8 9 10 12 11 10 10 9
6 4 3 6 8 9 10 7 8 5 6 6 7 6 6 6 4 6 9 8 7 7 7 7 7 7 7 6 6 7 8 9 11
6 3 3 6 7 7 5 4 4 4 4 4 5 4 5 1 2 2 5 5 5 6 5 5 6 7 7 7 8 8 9 10 10
4 3 4 6 6 4 3 3 3 3 4 5 5 3 2 2 3 2 3 4 3 2 2 1 1 3 6 7 7 8 8 9 10
1 5 3 2 3 3 3 3 4 3 3 6 6 5 3 2 3 2 4 5 3 2 1 2 5 2 3 5 7 7 8 8 8
2 4 4 3 3 4 3 2 5 4 3 3 4 3 5 4 3 4 4 4 5 3 3 3 3 5 7 7 6 8 8 9 8
3 4 3 4 2 5 4 3 3 3 3 2 2 3 4 3 5 3 3 3 3 3 7 7 5 5 6 6 6 7 7 8 8
3 5 4 4 2 3 3 2 2 2 3 2 1 3 2 3 2 2 2 4 3 4 6 7 8 8 8 8 8 7 8 8 8
5 5 5 5 3 4 3 3 1 1 4 4 2 2 2 1 4 3 3 5 4 5 4 6 8 10 10 10 10 10 10 10 9
6 5 4 4 3 4 4 4 3 2 3 3 3 2 2 4 4 5 3 4 4 5 5 6 7 11 13 12 11 13 13 12 11
Wind_Direction
41 37 37 37 36 33 30 28 24 20 18 15 9 359 346 330 312 305 209 153 104 74 16 328 314 301 299 286 248 244 246 255 276
42 37 33 31 29 25 21 19 16 12 9 8 2 355 345 334 317 306 45 40 35 20 4 316 309 316 305 296 283 273 276 274 264
39 33 28 24 20 14 7 2 357 354 352 351 349 342 334 327 326 4 51 35 24 15 2 347 346 335 318 315 309 293 284 284 278
42 31 22 17 13 7 0 352 344 338 334 333 330 321 312 311 312 9 49 36 22 12 4 6 14 21 17 3 337 327 305 294 281
65 34 22 19 15 7 0 351 338 328 313 308 311 310 307 295 292 70 37 24 13 358 351 354 359 2 7 16 20 7 3 339 310
35 32 33 9 3 345 346 340 330 323 313 268 292 317 312 353 3 52 30 12 351 330 330 340 346 1 22 17 17 16 18 18 20
326 264 314 293 323 304 314 313 324 358 352 336 309 313 352 322 58 51 33 10 346 339 344 23 28 16 0 353 351 353 357 0 5
9 20 7 5 1 7 1 352 358 349 348 342 341 336 334 331 86 64 47 25 21 29 20 17 359 359 356 355 6 29 24 20 19
354 27 10 11 0 6 355 354 354 348 355 341 337 333 332 329 106 77 65 38 22 17 19 21 12 11 9 14 10 19 15 7 3
2 11 15 13 5 3 348 354 345 339 339 340 333 327 329 347 94 100 87 68 43 32 28 29 27 17 13 22 25 16 2 358 352
14 8 7 15 356 346 337 331 338 320 332 332 331 332 335 36 43 127 103 97 71 43 32 17 15 14 9 21 20 19 4 357 358
355 358 26 0 341 341 346 341 353 345 342 341 325 338 349 355 42 73 147 122 101 75 48 39 37 28 19 16 13 11 356 347 348
338 1 12 350 346 338 342 332 346 340 342 325 301 317 324 284 40 61 51 101 129 111 86 47 36 28 19 14 8 3 355 346 335
335 348 336 358 335 331 341 333 339 327 324 314 302 288 279 340 356 83 82 118 35 69 118 124 78 27 4 354 352 348 346 344 335
303 318 323 329 328 335 346 337 323 304 322 316 295 273 239 207 231 227 188 177 179 267 337 286 235 253 355 330 338 336 335 331 328
285 294 312 323 341 309 302 319 330 315 342 335 328 300 208 211 232 210 206 197 189 190 256 290 317 318 316 303 318 321 324 324 322
242 272 298 317 324 322 321 0 327 301 11 343 284 330 350 334 247 229 200 206 194 217 240 229 251 271 284 284 299 293 314 314 315
250 279 292 291 293 272 288 293 322 302 316 327 176 344 315 329 319 238 229 240 214 234 245 227 234 236 254 275 280 270 297 302 301
255 251 265 278 278 286 277 279 225 317 279 318 256 221 180 279 322 331 330 268 246 247 243 238 242 229 230 248 254 263 274 288 293
225 243 261 274 270 264 266 286 283 247 239 237 297 304 276 231 219 284 289 328 267 261 241 234 233 234 231 229 244 261 259 277 287